TimeMDT,TemperatureF,Dew PointF,Humidity,Sea Level PressureIn,VisibilityMPH,Wind Direction,Wind SpeedMPH,Gust SpeedMPH,PrecipitationIn,Events,Conditions,WindDirDegrees,DateUTC
12:53 AM,34.0,28.0,79,29.96,10.0,ENE,3.5,-,N/A,,Clear,60,2013-04-01 06:53:00
1:53 AM,33.1,28.9,85,29.96,10.0,NE,5.8,-,N/A,,Clear,40,2013-04-01 07:53:00
2:53 AM,33.1,28.0,82,29.96,10.0,NE,5.8,-,N/A,,Clear,50,2013-04-01 08:53:00
4:53 AM,30.9,25.0,79,29.95,10.0,NE,4.6,-,N/A,,Clear,50,2013-04-01 10:53:00
5:53 AM,30.9,26.1,82,29.95,10.0,NE,5.8,-,N/A,,Clear,50,2013-04-01 11:53:00
6:53 AM,30.0,25.0,82,29.97,10.0,Calm,Calm,-,N/A,,Clear,0,2013-04-01 12:53:00
7:53 AM,32.0,26.1,79,29.99,10.0,ENE,4.6,-,N/A,,Clear,60,2013-04-01 13:53:00
8:53 AM,36.0,28.0,73,29.98,10.0,Calm,Calm,-,N/A,,Clear,0,2013-04-01 14:53:00
9:53 AM,37.9,30.0,73,30.00,10.0,Calm,Calm,-,N/A,,Clear,0,2013-04-01 15:53:00
10:53 AM,45.0,30.0,56,29.99,10.0,Calm,Calm,-,N/A,,Clear,0,2013-04-01 16:53:00
11:53 AM,53.1,27.0,37,29.96,10.0,Calm,Calm,-,N/A,,Clear,0,2013-04-01 17:53:00
12:53 PM,57.0,32.0,39,29.94,10.0,Variable,4.6,-,N/A,,Clear,0,2013-04-01 18:53:00
1:53 PM,57.9,32.0,37,29.92,10.0,Variable,5.8,-,N/A,,Clear,0,2013-04-01 19:53:00
2:53 PM,60.1,28.0,30,29.91,10.0,Variable,3.5,-,N/A,,Clear,0,2013-04-01 20:53:00
5:53 PM,62.1,25.0,24,29.88,10.0,NE,6.9,-,N/A,,Clear,50,2013-04-01 23:53:00
6:53 PM,61.0,24.1,24,29.88,10.0,Calm,Calm,-,N/A,,Clear,0,2013-04-02 00:53:00
7:53 PM,55.9,28.0,34,29.89,10.0,Calm,Calm,-,N/A,,Clear,0,2013-04-02 01:53:00
8:53 PM,51.1,30.0,44,29.91,10.0,NNE,3.5,-,N/A,,Clear,30,2013-04-02 02:53:00
9:53 PM,48.0,30.0,50,29.95,10.0,Calm,Calm,-,N/A,,Partly Cloudy,0,2013-04-02 03:53:00
10:53 PM,46.9,39.0,74,29.96,10.0,South,9.2,-,N/A,,Clear,190,2013-04-02 04:53:00
11:53 PM,45.0,39.0,80,29.95,10.0,SSW,9.2,-,N/A,,Clear,200,2013-04-02 05:53:00